FENGYUN1
1 25730U 99025A   10293.85001996  .00001011  00000-0  61513-3 0  1641
2 25730 098.7971 255.5964 0020749 273.3503 086.5262 14.08344008589374
OKEAN-0
1 25860U 99039A   10294.70937350  .00000144  00000-0  29499-4 0  1292
2 25860 097.8503 263.2248 0001826 060.7273 299.4117 14.73673253605537
NOAA-16
1 26536U 00055A   10294.73213801  .00000187  00000-0  10113-3 0   427
2 26536 099.1662 315.1567 0010452 346.5422 013.5951 14.12582256519693
NOAA-17
1 27453U 02032A   10294.73760387  .00000172  00000-0  74780-4 0   323
2 27453 098.4165 339.9879 0012470 124.3239 235.9613 14.24201236432713
NOAA-18
1 28654U 05018A   10294.77148696  .00000073  00000-0  40226-4 0  5223
2 28654 098.9645 240.7460 0015191 057.5957 302.7151 14.11398729279299
NOAA-19
1 33591U 09005A   10294.78708181  .00000205  00000-0  11398-3 0  7182
2 33591 098.8002 234.2756 0013399 293.3380 066.6853 14.11095535 87768
HUBBLE
1 20580U 90037B   10292.98334943  .00000613  00000-0  34019-4 0  6641
2 20580 028.4689 145.1032 0003368 092.2778 267.8229 15.01065959923523
ISS
1 25544U 98067A   10295.03824160  .00023707  00000-0  18170-3 0  1217
2 25544 051.6460 301.5784 0007482 108.3355 301.2197 15.71952222683420
CO-58
1 28895U 05043F   10294.36484823  .00000229  00000-0  57111-4 0  7101
2 28895 097.9955 174.5295 0016720 248.4451 111.4953 14.59949493265391
FALCON
1 30776U 07006E   10293.56559731  .00001253  00000-0  92105-4 0 09477
2 30776 035.4345 002.9794 0000984 235.0887 124.9738 15.03888505198942
MAST
1 31126U 07012K   10294.60307246  .00000203  00000-0  56128-4 0  9921
2 31126 097.9247 329.9927 0094107 192.5698 167.3156 14.53631630186427
CAPE1
1 31130U 07012P   10293.67409301  .00000267  00000-0  72094-4 0 00120
2 31130 097.9257 326.2813 0102573 204.0099 155.6291 14.52236365185871
COMPASS
1 32787U 08021E   10294.70159220  .00000947  00000-0  12588-3 0  8097
2 32787 097.8822 357.6309 0014814 232.6674 127.3128 14.82009186134232
AAUSAT2
1 32788U 08021F   10293.61197823  .00000826  00000-0  11024-3 0 08009
2 32788 097.8813 356.7129 0014478 236.3027 123.6872 14.82156984134089
DO-64
1 32789U 08021G   10294.68601801  .00001547  00000-0  19957-3 0  8176
2 32789 097.8896 358.3983 0014686 230.6326 129.3604 14.82375651134245
CO-66
1 32791U 08021J   10293.18960980  .00000113  00000-0  21050-4 0 08018
2 32791 097.8828 356.1395 0014949 236.6394 123.3383 14.81766688133968
RS-30
1 32953U 08025A   10294.57795785  .00000010  00000-0  00000 0 0  1505
2 32953 082.5008 311.0922 0018619 182.4138 177.6857 12.43008521109442
TACSAT-3
1 35001U 09028A   10293.91420505  .00009266  00000-0  20711-3 0 04193
2 35001 040.4529 178.1879 0022237 231.4958 128.3880 15.43190826080056
PHARMSAT
1 35002U 09028B   10294.86567329  .00008508  00000-0  18775-3 0  3852
2 35002 040.4676 170.0898 0024881 240.9519 118.8808 15.43580270 80226
HAWKSAT1
1 35003U 09028C   10294.85590737  .00020101  00000-0  37134-3 0  4181
2 35003 040.4547 160.5280 0023984 262.6505 097.1593 15.48225880 80332
CP6
1 35004U 09028D   10293.92705201  .00024803  00000-0  43494-3 0 04182
2 35004 040.4597 164.0173 0023757 260.2779 099.5384 15.49621702080207
AEROCUB3
1 35005U 09028E   10294.82892201  .00122783  00000-0  12120-2 0  4929
2 35005 040.4653 146.2412 0024605 294.3782 065.4467 15.64322285 80489
CASTOR
1 35694U 09038F   10230.44082147  .07179566  12689-4  99310-4 0  6559
2 35694 051.5930 222.0149 0004218 308.0851 053.0105 16.48877011 61107
METEOR-M
1 35865U 09049A   10294.73282788  .00000176  00000-0  10000-3 0  7615
2 35865 098.7430 347.5275 0003298 013.3967 346.7261 14.21832180 56701
RS-38
1 35869U 09049E   10294.76081492  .00000177  00000-0  10000-3 0  7757
2 35869 098.7427 347.5951 0005400 007.4678 352.6542 14.21991152 56716
